Location: Civry
(47.2902°N, 4.6156°E)
Time: 17:35:57
(UTC+00:00)

ATLAS 2AS CENTAUR R/B - Pass Details

Date: 09 April 2020
Orbit: 929 x 1283 km, 63.7° (Epoch: 21 May)

Event Time Altitude Azimuth Distance (km) Brightness Sun altitude
Rises 19:56:27 0° 317° (NW) 4,158 7.3 -15.5°
Reaches altitude 10° 19:59:27 10° 311° (NW) 3,145 6.5 -16.0°
Maximum altitude 20:06:21 41° 245° (WSW) 1,589 3.8 -16.9°
Drops below altitude 10° 20:12:43 10° 177° (S) 2,890 4.6 -17.8°
Enters shadow 20:13:01 - 176° (S) 2,990 4.7 -17.9°
